Clarksburg, WV

4:36 PM EST on December 10, 2019 (GMT -0500)
Benedum

Weather History for KCKB - June, 2019

Change the Weather History Date:

Friday, June 7, 2019

  Actual Average Record
Temperature  
Mean Temperature 71 °F -  
Max Temperature 77 °F 78 °F 97 °F (1925)
Min Temperature 64 °F 53 °F 36 °F (1945)
Cooling Degree Days 6    
Month to date cooling degree days 26  
Year to date cooling degree days 205  
Since 1 June cooling degree days 26  
Growing Degree Days 20 (Base 50)    
Moisture  
Dew Point 62 °F    
Average Humidity 76    
Maximum Humidity 87    
Minimum Humidity 64    
Precipitation  
Precipitation 0.00 in - - ()
Month to date precipitation 0.67  
Year to date precipitation 18.44  
Sea Level Pressure  
Sea Level Pressure 29.87 in    
Wind  
Wind Speed 6 mph (NE)    
Max Wind Speed 16 mph    
Max Gust Speed 22 mph    
Visibility 10 miles    
Events      
Averages and records for this station are not official NWS values.
T = Trace of Precipitation, MM = Missing Value Source: NWS Daily Summary

Daily Weather History Graph

Daily Weather History Graph

Search for Another Location

Airport or City:

Astronomy

Jun. 07, 2019 Rise Set
Actual Time 5:54 AM EDT 8:45 PM EDT
Civil Twilight 5:22 AM EDT 9:17 PM EDT
Nautical Twilight 4:42 AM EDT 9:57 PM EDT
Astronomical Twilight 3:56 AM EDT 10:43 PM EDT
Moon 10:09 AM EDT (6/7) 12:01 AM EDT (6/7)
Length of Visible Light 15h 54m
Length of Day
14h 50m
Waxing Crescent, 22% of the Moon is Illuminated
Jun 7
Waxing Crescent
Jun 10
First Quarter
Jun 17
Full
Jun 25
Last Quarter
Jul 2
New

Hourly Weather History & Observations

Time (EDT) Temp. Dew Point Humidity Pressure Visibility Wind Dir Wind Speed Gust Speed Precip Events Conditions
12:53 AM 68.0 °F 62.1 °F 81% 29.86 in 10.0 mi NE 4.6 mph - N/A   Clear
1:53 AM 68.0 °F 62.1 °F 81% 29.85 in 10.0 mi Calm Calm - N/A   Clear
2:53 AM 66.0 °F 61.0 °F 84% 29.84 in 10.0 mi North 4.6 mph - N/A   Clear
3:53 AM 66.0 °F 61.0 °F 84% 29.84 in 10.0 mi NE 3.5 mph - N/A   Clear
4:53 AM 64.9 °F 61.0 °F 87% 29.85 in 10.0 mi NE 3.5 mph - N/A   Clear
5:53 AM 64.0 °F 61.0 °F 90% 29.85 in 8.0 mi NNE 5.8 mph - N/A   Clear
6:53 AM 64.9 °F 61.0 °F 87% 29.86 in 7.0 mi NNE 5.8 mph - N/A   Clear
7:53 AM 66.0 °F 61.0 °F 84% 29.87 in 8.0 mi NE 4.6 mph - N/A   Clear
8:53 AM 68.0 °F 63.0 °F 84% 29.87 in 10.0 mi Calm Calm - N/A   Clear
9:53 AM 72.0 °F 64.0 °F 76% 29.87 in 10.0 mi NNE 5.8 mph - N/A   Unknown
10:53 AM 73.9 °F 64.9 °F 73% 29.87 in 10.0 mi North 4.6 mph - N/A   Clear
11:53 AM 75.9 °F 64.0 °F 67% 29.87 in 10.0 mi NNE 6.9 mph - N/A   Clear
12:53 PM 75.0 °F 66.0 °F 73% 29.87 in 10.0 mi NNE 5.8 mph - N/A   Clear
1:53 PM 75.9 °F 66.0 °F 71% 29.86 in 10.0 mi NNE 9.2 mph - N/A   Clear
2:53 PM 77.0 °F 66.0 °F 69% 29.86 in 10.0 mi NE 9.2 mph - N/A   Clear
3:53 PM 77.0 °F 64.9 °F 66% 29.86 in 10.0 mi NE 6.9 mph - N/A   Clear
4:53 PM 77.0 °F 64.9 °F 66% 29.86 in 10.0 mi NE 11.5 mph 16.1 mph N/A   Clear
5:53 PM 75.9 °F 63.0 °F 64% 29.86 in 10.0 mi ENE 11.5 mph - N/A   Scattered Clouds
6:53 PM 75.0 °F 63.0 °F 66% 29.86 in 10.0 mi ENE 8.1 mph 17.3 mph N/A   Clear
7:53 PM 73.9 °F 62.1 °F 66% 29.87 in 10.0 mi East 10.4 mph - N/A   Clear
8:53 PM 72.0 °F 61.0 °F 68% 29.89 in 10.0 mi NE 6.9 mph - N/A   Clear
9:53 PM 70.0 °F 60.1 °F 71% 29.91 in 10.0 mi NNE 6.9 mph - N/A   Clear
10:53 PM 70.0 °F 59.0 °F 68% 29.92 in 10.0 mi ENE 5.8 mph - N/A   Unknown
11:53 PM 70.0 °F 57.9 °F 65% 29.92 in 10.0 mi Variable 5.8 mph 16.1 mph N/A   Clear